,,Stat5,,Stat1,,Stat2,,Stat3,,Stat4,,Wind1,,Wind1,
time,status,PA1M_AVG,status,PR1M_SUM,status,RH1M_AVG,status,SR1M_AVG,status,TA1M_AVG,status,W1dAve1m,status,W1sAve1m,
2002-09-05, 00:20:00,INVALID,0,VALID,0,VALID,97.265,VALID,0.040754,VALID,20.8291,VALID,356,VALID,0.583534,
2002-09-05, 00:21:00,VALID,918.167,VALID,0,VALID,97.2574,VALID,0.0509425,VALID,20.8193,VALID,343,VALID,0.604492,
2002-09-05, 00:22:00,VALID,918.153,VALID,0,VALID,97.2663,VALID,0.0849042,VALID,20.7994,VALID,23,VALID,0.534054,
2002-09-05, 00:54:00,INVALID,0,VALID,0,VALID,97.5997,VALID,-0.040754,VALID,20.805,VALID,13,VALID,0.120361,
2002-09-05, 00:55:00,VALID,917.859,VALID,0,VALID,97.5003,VALID,-0.0169808,VALID,20.8021,VALID,359,VALID,0.0820313,
2002-09-05, 00:56:00,VALID,917.833,VALID,0,VALID,97.3095,VALID,-0.0509425,VALID,20.7506,VALID,290,VALID,0.185096,
2002-09-05, 01:28:00,INVALID,0,VALID,0,VALID,98.1643,VALID,0.081508,VALID,20.6554,VALID,36,VALID,0.0578613,
2002-09-05, 01:29:00,VALID,917.502,VALID,0,VALID,98.2429,VALID,0.0849042,VALID,20.6872,VALID,31,VALID,0.266016,
2002-09-05, 01:30:00,VALID,917.495,VALID,0,VALID,98.1958,VALID,0.0849042,VALID,20.6842,VALID,19,VALID,0.382212,
2002-09-05, 01:32:00,INVALID,0,VALID,0,VALID,98.2223,VALID,0.020377,VALID,20.6661,VALID,18,VALID,0.280273,
2002-09-05, 01:33:00,VALID,917.457,VALID,0,VALID,98.1297,VALID,0,VALID,20.643,VALID,18,VALID,0.120066,
2002-09-05, 01:34:00,VALID,917.448,VALID,0,VALID,98.1463,VALID,0.0679233,VALID,20.6228,VALID,17,VALID,0.41847,
2002-09-05, 01:36:00,INVALID,0,VALID,0,VALID,98.2864,VALID,0.040754,VALID,20.6593,VALID,8,VALID,0.211426,
2002-09-05, 01:37:00,VALID,917.398,VALID,0,VALID,98.1997,VALID,0.0169808,VALID,20.6403,VALID,15,VALID,0.232319,
2002-09-05, 01:38:00,VALID,917.373,VALID,0,VALID,98.2505,VALID,0,VALID,20.6198,VALID,19,VALID,0.669471,
2002-09-05, 02:10:00,INVALID,0,VALID,0,VALID,98.4878,VALID,0.020377,VALID,20.6373,VALID,26,VALID,0.0791016,
2002-09-05, 02:11:00,VALID,917.1,VALID,0,VALID,98.5061,VALID,0,VALID,20.6244,VALID,26,VALID,0.00859375,
2002-09-05, 02:12:00,VALID,917.106,VALID,0,VALID,98.4807,VALID,-0.0169808,VALID,20.5983,VALID,26,VALID,0,
2002-09-05, 02:14:00,INVALID,0,VALID,0,VALID,98.4161,VALID,-0.101885,VALID,20.5383,VALID,26,VALID,0,
2002-09-05, 02:15:00,VALID,917.074,VALID,0,VALID,98.4133,VALID,-0.0849042,VALID,20.5255,VALID,83,VALID,0.116571,
2002-09-05, 02:16:00,VALID,917.076,VALID,0,VALID,98.3573,VALID,-0.0849042,VALID,20.5123,VALID,88,VALID,0.193309,
2002-09-05, 02:48:00,INVALID,0,VALID,0,VALID,98.6908,VALID,0.020377,VALID,20.563,VALID,28,VALID,0,
2002-09-05, 02:49:00,VALID,916.836,VALID,0,VALID,98.646,VALID,0.0169808,VALID,20.5535,VALID,28,VALID,0,
2002-09-05, 02:50:00,VALID,916.85,VALID,0,VALID,98.5888,VALID,0,VALID,20.521,VALID,28,VALID,0,
2002-09-05, 03:22:00,INVALID,0,VALID,0,VALID,98.5153,VALID,0,VALID,20.4268,VALID,27,VALID,0.500732,
2002-09-05, 03:23:00,VALID,916.793,VALID,0,VALID,98.4921,VALID,0.0509425,VALID,20.4138,VALID,23,VALID,0.333008,
2002-09-05, 03:24:00,VALID,916.778,VALID,0,VALID,98.5417,VALID,0,VALID,20.4166,VALID,22,VALID,0.478365,
2002-09-05, 03:26:00,INVALID,0,VALID,0,VALID,98.5122,VALID,0.040754,VALID,20.4034,VALID,23,VALID,0.407959,
2002-09-05, 03:27:00,VALID,916.749,VALID,0,VALID,98.5392,VALID,-0.0169808,VALID,20.4303,VALID,23,VALID,0.328331,
2002-09-05, 03:28:00,VALID,916.735,VALID,0,VALID,98.5939,VALID,0.0339617,VALID,20.4529,VALID,22,VALID,0.380609,
2002-09-05, 03:30:00,INVALID,0,VALID,0,VALID,98.4603,VALID,0,VALID,20.4237,VALID,19,VALID,0.268066,
2002-09-05, 03:31:00,VALID,916.659,VALID,0,VALID,98.4934,VALID,0,VALID,20.4111,VALID,23,VALID,0.660567,
2002-09-05, 03:32:00,VALID,916.641,VALID,0,VALID,98.3421,VALID,0.0169808,VALID,20.3786,VALID,19,VALID,0.561899,
2002-09-05, 03:34:00,INVALID,0,VALID,0,VALID,98.2665,VALID,0,VALID,20.3155,VALID,19,VALID,0.296875,
2002-09-05, 03:35:00,VALID,916.627,VALID,0,VALID,98.2073,VALID,0,VALID,20.2983,VALID,19,VALID,0.0376234,
2002-09-05, 03:36:00,VALID,916.632,VALID,0,VALID,98.1933,VALID,0,VALID,20.2884,VALID,37,VALID,0.386819,
2002-09-05, 04:08:00,INVALID,0,VALID,0,VALID,98.526,VALID,0,VALID,20.2111,VALID,54,VALID,0.104492,
2002-09-05, 04:09:00,VALID,916.451,VALID,0,VALID,98.5405,VALID,0,VALID,20.2151,VALID,102,VALID,0.0751953,
2002-09-05, 04:10:00,VALID,916.45,VALID,0,VALID,98.4998,VALID,0,VALID,20.1982,VALID,123,VALID,0.530248,
2002-09-05, 04:12:00,INVALID,0,VALID,0,VALID,98.4451,VALID,0,VALID,20.1372,VALID,141,VALID,0.625,
2002-09-05, 04:13:00,VALID,916.434,VALID,0,VALID,98.4845,VALID,0.0169808,VALID,20.1301,VALID,144,VALID,0.532278,
2002-09-05, 04:14:00,VALID,916.431,VALID,0,VALID,98.4642,VALID,0.0169808,VALID,20.1211,VALID,144,VALID,0.597756,
2002-09-05, 04:16:00,INVALID,0,VALID,0,VALID,98.4649,VALID,0,VALID,20.0868,VALID,122,VALID,0.883545,
2002-09-05, 04:17:00,VALID,916.409,VALID,0,VALID,98.4769,VALID,0.0169808,VALID,20.0846,VALID,113,VALID,0.708882,
2002-09-05, 04:18:00,VALID,916.397,VALID,0,VALID,98.4794,VALID,0.0169808,VALID,20.0854,VALID,100,VALID,0.715946,
2002-09-05, 04:20:00,INVALID,0,VALID,0,VALID,98.4924,VALID,0,VALID,20.0638,VALID,130,VALID,0.644043,
2002-09-05, 04:21:00,VALID,916.357,VALID,0,VALID,98.5379,VALID,-0.0339617,VALID,20.0759,VALID,138,VALID,0.654811,
2002-09-05, 04:22:00,VALID,916.342,VALID,0,VALID,98.5443,VALID,0,VALID,20.0859,VALID,147,VALID,1.16807,
2002-09-05, 04:54:00,INVALID,0,VALID,0,VALID,98.3932,VALID,-0.020377,VALID,19.9467,VALID,172,VALID,1.32642,
2002-09-05, 04:55:00,VALID,916.394,VALID,0,VALID,98.4184,VALID,-0.0169808,VALID,19.9373,VALID,175,VALID,0.919727,
2002-09-05, 04:56:00,VALID,916.396,VALID,0,VALID,98.4464,VALID,0,VALID,19.9176,VALID,176,VALID,0.838542,
2002-09-05, 04:58:00,INVALID,0,VALID,0,VALID,98.4497,VALID,-0.020377,VALID,19.8936,VALID,162,VALID,0.916992,
2002-09-05, 04:59:00,VALID,916.375,VALID,0,VALID,98.44,VALID,-0.0169808,VALID,19.8925,VALID,175,VALID,0.79153,
2002-09-05, 05:00:00,VALID,916.381,VALID,0,VALID,98.4324,VALID,0,VALID,19.8729,VALID,160,VALID,0.502404,
2002-09-05, 05:32:00,INVALID,0,VALID,0,VALID,97.6791,VALID,0,VALID,19.9313,VALID,156,VALID,0.963135,
2002-09-05, 05:33:00,VALID,916.51,VALID,0,VALID,97.6541,VALID,0,VALID,19.9313,VALID,144,VALID,1.10273,
2002-09-05, 05:34:00,VALID,916.538,VALID,0,VALID,97.6427,VALID,0,VALID,19.9375,VALID,148,VALID,0.880208,
2002-09-05, 06:06:00,INVALID,0,VALID,0,VALID,97.8454,VALID,0.590933,VALID,19.7375,VALID,93,VALID,1.25244,
2002-09-05, 06:07:00,VALID,916.874,VALID,0,VALID,97.7826,VALID,0.713195,VALID,19.7407,VALID,113,VALID,0.611914,
2002-09-05, 06:08:00,VALID,916.875,VALID,0,VALID,97.7737,VALID,0.899984,VALID,19.731,VALID,136,VALID,0.836739,
2002-09-05, 06:10:00,INVALID,0,VALID,0,VALID,97.7828,VALID,1.65054,VALID,19.7239,VALID,146,VALID,0.920654,
2002-09-05, 06:11:00,VALID,916.884,VALID,0,VALID,97.761,VALID,2.15657,VALID,19.7117,VALID,130,VALID,1.11266,
2002-09-05, 06:12:00,VALID,916.894,VALID,0,VALID,97.7317,VALID,2.71693,VALID,19.6985,VALID,130,VALID,0.878806,
2002-09-05, 06:14:00,INVALID,0,VALID,0,VALID,97.7203,VALID,4.44219,VALID,19.7198,VALID,110,VALID,1.01245,
2002-09-05, 06:15:00,VALID,916.936,VALID,0,VALID,97.7279,VALID,5.38292,VALID,19.7407,VALID,125,VALID,1.20436,
2002-09-05, 06:16:00,VALID,916.946,VALID,0,VALID,97.6198,VALID,6.33385,VALID,19.7765,VALID,110,VALID,0.854567,
2002-09-05, 06:48:00,INVALID,0,VALID,0,VALID,97.7065,VALID,52.6134,VALID,19.8118,VALID,110,VALID,0.714355,
2002-09-05, 06:49:00,VALID,917.11,VALID,0,VALID,97.7012,VALID,55.9349,VALID,19.8568,VALID,126,VALID,1.25254,
2002-09-05, 06:50:00,VALID,917.114,VALID,0,VALID,97.6211,VALID,60.0103,VALID,19.9122,VALID,123,VALID,0.751202,
2002-09-05, 06:51:00,VALID,917.117,VALID,0,VALID,97.5283,VALID,63.5423,VALID,19.9502,VALID,116,VALID,0.589844,
2002-09-05, 06:52:00,VALID,917.126,VALID,0,VALID,97.3833,VALID,66.5818,VALID,20.0024,VALID,131,VALID,0.851367,
2002-09-05, 06:53:00,VALID,917.128,VALID,0,VALID,97.2053,VALID,69.4516,VALID,20.0541,VALID,123,VALID,0.690378,
2002-09-05, 06:54:00,VALID,917.125,VALID,0,VALID,97.0311,VALID,71.8289,VALID,20.1025,VALID,128,VALID,0.755912,
2002-09-05, 06:55:00,VALID,917.105,VALID,0,VALID,96.8251,VALID,73.3912,VALID,20.148,VALID,151,VALID,0.783203,
2002-09-05, 06:56:00,VALID,917.097,VALID,0,VALID,96.7182,VALID,74.2572,VALID,20.1965,VALID,114,VALID,0.297447,
2002-09-05, 06:57:00,VALID,917.073,VALID,0,VALID,96.4995,VALID,74.8685,VALID,20.2382,VALID,132,VALID,0.674831,
2002-09-05, 06:58:00,VALID,917.052,VALID,0,VALID,96.3228,VALID,75.8364,VALID,20.2633,VALID,146,VALID,0.667019,
2002-09-05, 06:59:00,VALID,917.047,VALID,0,VALID,96.0812,VALID,77.3816,VALID,20.309,VALID,154,VALID,0.619026,
2002-09-05, 07:00:01,VALID,917.059,VALID,0,VALID,95.8892,VALID,79.9288,VALID,20.3413,VALID,128,VALID,0.530248,
2002-09-05, 07:01:00,VALID,917.068,VALID,0,VALID,95.6959,VALID,84.174,VALID,20.3672,VALID,110,VALID,0.600414,
2002-09-05, 07:02:00,VALID,917.071,VALID,0,VALID,95.6348,VALID,91.5267,VALID,20.4057,VALID,65,VALID,0.315245,
2002-09-05, 07:03:00,VALID,917.093,VALID,0,VALID,95.5153,VALID,101.002,VALID,20.4636,VALID,72,VALID,0.352564,
2002-09-05, 07:04:00,VALID,917.102,VALID,0,VALID,95.2343,VALID,111.309,VALID,20.522,VALID,74,VALID,0.528429,
2002-09-05, 07:05:00,VALID,917.13,VALID,0,VALID,94.9367,VALID,122.687,VALID,20.5767,VALID,89,VALID,0.615625,
2002-09-05, 07:06:00,VALID,918.115,VALID,0,VALID,99.3912,VALID,27.8146,VALID,19.1382,VALID,21,VALID,1.47005,
2002-09-05, 07:08:00,INVALID,0,VALID,0,VALID,99.3988,VALID,28.324,VALID,19.1479,VALID,345,VALID,1.16406,
2002-09-05, 07:09:00,VALID,918.131,VALID,0,VALID,99.3975,VALID,26.9146,VALID,19.1404,VALID,2,VALID,1.0855,
2002-09-05, 07:10:00,VALID,918.149,VALID,0,VALID,99.3988,VALID,24.9279,VALID,19.179,VALID,15,VALID,1.51504,
2002-09-05, 07:12:00,INVALID,0,VALID,0,VALID,99.4232,VALID,24.1264,VALID,19.2359,VALID,3,VALID,0.758789,
2002-09-05, 07:13:00,VALID,918.219,VALID,0,VALID,99.4064,VALID,26.2863,VALID,19.2207,VALID,20,VALID,1.07813,
2002-09-05, 07:14:00,VALID,918.241,VALID,0,VALID,99.4179,VALID,30.4806,VALID,19.1949,VALID,342,VALID,0.73738,
2002-09-05, 07:15:00,INVALID,0,VALID,0,VALID,99.4102,VALID,35.9654,VALID,19.1871,VALID,7,VALID,0.846755,
2002-09-05, 07:16:00,INVALID,0,VALID,0,VALID,99.414,VALID,44.0143,VALID,19.1852,VALID,33,VALID,0.365885,
2002-09-05, 07:17:00,INVALID,0,VALID,0,VALID,99.4217,VALID,46.8671,VALID,19.2175,VALID,342,VALID,0.679688,
2002-09-05, 07:18:00,INVALID,0,VALID,0,VALID,97.3528,VALID,70.1988,VALID,18.7607,VALID,136,VALID,1.0006,
2002-09-05, 07:19:00,VALID,918.504,VALID,0,VALID,97.3286,VALID,71.6251,VALID,18.7573,VALID,130,VALID,1.01719,
2002-09-05, 07:20:00,VALID,918.52,VALID,0,VALID,97.0705,VALID,72.7289,VALID,18.7412,VALID,142,VALID,1.06751,
2002-09-05, 07:21:00,VALID,918.529,VALID,0,VALID,96.9904,VALID,73.7987,VALID,18.7347,VALID,124,VALID,0.934375,
2002-09-05, 07:22:00,VALID,918.526,VALID,0,VALID,96.7004,VALID,75.0213,VALID,18.728,VALID,118,VALID,1.0291,
2002-09-05, 07:23:00,VALID,918.527,VALID,0,VALID,96.6051,VALID,76.0232,VALID,18.7479,VALID,114,VALID,0.827919,
2002-09-05, 07:24:00,VALID,918.554,VALID,0,VALID,96.4003,VALID,76.7194,VALID,18.7767,VALID,118,VALID,0.647804,
2002-09-05, 07:25:00,VALID,918.535,VALID,0,VALID,96.3419,VALID,76.9401,VALID,18.8184,VALID,122,VALID,0.658984,
2002-09-05, 07:26:00,VALID,918.566,VALID,0,VALID,96.1842,VALID,76.9911,VALID,18.8599,VALID,117,VALID,0.477134,
2002-09-05, 07:27:00,VALID,918.57,VALID,0,VALID,95.8599,VALID,77.6024,VALID,18.8959,VALID,115,VALID,0.918919,
2002-09-05, 07:28:00,VALID,918.561,VALID,0,VALID,95.6997,VALID,78.6892,VALID,18.9215,VALID,118,VALID,0.665752,
2002-09-05, 07:29:00,VALID,918.571,VALID,0,VALID,95.7315,VALID,79.8439,VALID,18.9735,VALID,97,VALID,0.449908,
2002-09-05, 07:30:00,VALID,918.606,VALID,0,VALID,95.7455,VALID,80.9306,VALID,19.0217,VALID,88,VALID,0.104567,
2002-09-05, 07:31:00,VALID,918.614,VALID,0,VALID,95.8256,VALID,82.0174,VALID,19.0833,VALID,88,VALID,0.111443,
2002-09-05, 07:32:00,VALID,918.621,VALID,0,VALID,95.7467,VALID,83.2061,VALID,19.1377,VALID,86,VALID,0.341639,
2002-09-05, 07:33:00,VALID,918.628,VALID,0,VALID,95.5293,VALID,84.3777,VALID,19.1737,VALID,90,VALID,0.405048,
2002-09-05, 07:34:00,VALID,918.629,VALID,0,VALID,95.1669,VALID,85.957,VALID,19.1894,VALID,121,VALID,0.138021,
2002-09-05, 07:35:00,VALID,918.643,VALID,0,VALID,95.2521,VALID,87.8928,VALID,19.2478,VALID,121,VALID,0.0630859,
2002-09-05, 07:36:00,VALID,918.641,VALID,0,VALID,95.0105,VALID,90.1682,VALID,19.3091,VALID,121,VALID,0.114926,
2002-09-05, 07:37:00,VALID,918.641,VALID,0,VALID,94.3963,VALID,92.0531,VALID,19.3223,VALID,121,VALID,0.15625,
2002-09-05, 07:38:00,VALID,918.645,VALID,0,VALID,93.7986,VALID,93.921,VALID,19.325,VALID,124,VALID,0.35766,
2002-09-05, 07:39:00,VALID,918.648,VALID,0,VALID,93.6295,VALID,95.9926,VALID,19.3735,VALID,133,VALID,0.332131,
2002-09-05, 07:40:00,VALID,918.647,VALID,0,VALID,93.2302,VALID,98.1492,VALID,19.4122,VALID,136,VALID,0.0168269,
2002-09-05, 07:41:00,VALID,918.635,VALID,0,VALID,93.1666,VALID,100.272,VALID,19.4736,VALID,136,VALID,0.0172697,
2002-09-05, 07:42:00,VALID,918.611,VALID,0,VALID,93.1272,VALID,102.53,VALID,19.525,VALID,136,VALID,0.00380068,
2002-09-05, 07:43:00,VALID,918.62,VALID,0,VALID,93.1883,VALID,105.264,VALID,19.5901,VALID,136,VALID,0,
2002-09-05, 07:44:00,VALID,918.61,VALID,0,VALID,93.1895,VALID,108.558,VALID,19.6605,VALID,136,VALID,0,
2002-09-05, 07:45:00,VALID,918.616,VALID,0,VALID,92.9365,VALID,112.345,VALID,19.7092,VALID,135,VALID,0,
2002-09-05, 07:46:00,VALID,918.643,VALID,0,VALID,92.728,VALID,116.607,VALID,19.7611,VALID,82,VALID,0.0421464,
2002-09-05, 07:47:00,VALID,918.638,VALID,0,VALID,92.7101,VALID,120.717,VALID,19.8319,VALID,80,VALID,0,
2002-09-05, 07:48:00,VALID,918.654,VALID,0,VALID,92.4062,VALID,124.724,VALID,19.9062,VALID,73,VALID,0.0105574,
2002-09-05, 07:49:00,VALID,918.664,VALID,0,VALID,92.2931,VALID,129.156,VALID,19.9832,VALID,52,VALID,0.357077,
2002-09-05, 07:50:00,VALID,918.642,VALID,0,VALID,91.5784,VALID,134.166,VALID,20.0449,VALID,51,VALID,0.534939,
2002-09-05, 07:51:00,VALID,918.659,VALID,0,VALID,90.9935,VALID,139.973,VALID,20.0735,VALID,78,VALID,0.367989,
2002-09-05, 07:52:00,VALID,918.655,VALID,0,VALID,91.1397,VALID,146.392,VALID,20.0603,VALID,61,VALID,0.102679,
2002-09-05, 07:53:00,VALID,918.654,VALID,0,VALID,92.0235,VALID,153.931,VALID,20.1095,VALID,49,VALID,0.000411184,
2002-09-05, 07:54:00,VALID,918.654,VALID,0,VALID,92.0934,VALID,161.59,VALID,20.1445,VALID,36,VALID,0.307143,
2002-09-05, 07:55:00,VALID,918.66,VALID,0,VALID,91.8289,VALID,168.586,VALID,20.1766,VALID,19,VALID,0.546875,
2002-09-05, 07:56:00,VALID,918.664,VALID,0,VALID,90.6959,VALID,174.563,VALID,20.1542,VALID,26,VALID,0.73088,
2002-09-05, 07:57:00,VALID,918.677,VALID,0,VALID,91.3432,VALID,179.335,VALID,20.1731,VALID,35,VALID,0.686699,
2002-09-05, 07:58:00,VALID,918.677,VALID,0,VALID,90.9197,VALID,182.68,VALID,20.1927,VALID,65,VALID,0.734175,
2002-09-05, 07:59:00,VALID,918.665,VALID,0,VALID,90.9617,VALID,184.633,VALID,20.183,VALID,48,VALID,1.00866,
2002-09-05, 08:00:00,VALID,918.681,VALID,0,VALID,90.804,VALID,185.278,VALID,20.154,VALID,41,VALID,0.872677,
2002-09-05, 08:01:00,VALID,918.687,VALID,0,VALID,90.4085,VALID,185.278,VALID,20.141,VALID,41,VALID,1.00215,
2002-09-05, 08:02:00,VALID,918.695,VALID,0,VALID,91.0393,VALID,186.314,VALID,20.1535,VALID,41,VALID,0.694169,
2002-09-05, 08:03:00,VALID,918.708,VALID,0,VALID,90.3411,VALID,187.774,VALID,20.1413,VALID,84,VALID,0.79603,
2002-09-05, 08:04:00,VALID,918.726,VALID,0,VALID,90.7748,VALID,188.674,VALID,20.1154,VALID,81,VALID,0.983742,
2002-09-05, 08:05:00,VALID,918.74,VALID,0,VALID,91.0138,VALID,189.251,VALID,20.0702,VALID,77,VALID,0.985754,
2002-09-05, 08:06:00,VALID,918.748,VALID,0,VALID,92.2002,VALID,189.71,VALID,20.0379,VALID,67,VALID,0.748798,
2002-09-05, 08:07:00,VALID,918.743,VALID,0,VALID,93.3637,VALID,190.763,VALID,20.0764,VALID,36,VALID,0.96898,
2002-09-05, 08:08:00,VALID,918.739,VALID,0,VALID,93.4896,VALID,193.089,VALID,20.1184,VALID,27,VALID,1.05384,
2002-09-05, 08:09:00,VALID,918.739,VALID,0,VALID,93.3574,VALID,198.098,VALID,20.1967,VALID,32,VALID,0.7498,
2002-09-05, 08:10:00,VALID,918.748,VALID,0,VALID,92.2981,VALID,207.047,VALID,20.2283,VALID,48,VALID,0.564887,
2002-09-05, 08:11:00,VALID,918.746,VALID,0,VALID,90.6692,VALID,217.27,VALID,20.2382,VALID,41,VALID,0.402539,
2002-09-05, 08:12:00,VALID,918.766,VALID,0,VALID,90.1809,VALID,225.998,VALID,20.2993,VALID,33,VALID,0.725535,
2002-09-05, 08:13:00,VALID,918.754,VALID,0,VALID,89.5222,VALID,236.509,VALID,20.3863,VALID,18,VALID,1.10218,
2002-09-05, 08:14:00,VALID,918.752,VALID,0,VALID,89.0594,VALID,253.863,VALID,20.4248,VALID,29,VALID,0.458841,
2002-09-05, 08:15:00,VALID,918.758,VALID,0,VALID,88.7618,VALID,255.171,VALID,20.5282,VALID,21,VALID,0.422276,
2002-09-05, 08:16:00,VALID,918.783,VALID,0,VALID,88.2176,VALID,262.303,VALID,20.6437,VALID,40,VALID,0.790465,
2002-09-05, 08:17:00,VALID,918.783,VALID,0,VALID,85.9478,VALID,265.801,VALID,20.6604,VALID,71,VALID,1.05757,
2002-09-05, 08:18:00,VALID,918.799,VALID,0,VALID,85.963,VALID,254.237,VALID,20.6634,VALID,59,VALID,0.139569,
2002-09-05, 08:19:00,VALID,918.809,VALID,0,VALID,86.6548,VALID,241.043,VALID,20.7353,VALID,59,VALID,0,
2002-09-05, 08:20:00,VALID,918.835,VALID,0,VALID,86.3674,VALID,233.419,VALID,20.8379,VALID,91,VALID,0.678686,
2002-09-05, 08:21:00,VALID,918.86,VALID,0,VALID,85.5103,VALID,228.647,VALID,20.8443,VALID,69,VALID,1.17146,
2002-09-05, 08:22:00,VALID,918.884,VALID,0,VALID,85.6324,VALID,226.694,VALID,20.7959,VALID,51,VALID,0.558594,
2002-09-05, 08:23:00,VALID,918.888,VALID,0,VALID,87.0833,VALID,227.645,VALID,20.8018,VALID,80,VALID,0.787914,
2002-09-05, 08:24:00,VALID,918.906,VALID,0,VALID,87.583,VALID,230.905,VALID,20.7889,VALID,81,VALID,1.06292,
2002-09-05, 08:25:00,VALID,918.901,VALID,0,VALID,89.6405,VALID,236.186,VALID,20.7889,VALID,142,VALID,1.01769,
2002-09-05, 08:26:00,VALID,918.9,VALID,0,VALID,90.2191,VALID,242.911,VALID,20.7598,VALID,138,VALID,1.28451,
2002-09-05, 08:27:00,VALID,918.896,VALID,0,VALID,90.4441,VALID,250.128,VALID,20.6857,VALID,130,VALID,1.15004,
2002-09-05, 08:28:00,VALID,918.892,VALID,0,VALID,90.771,VALID,255.562,VALID,20.6236,VALID,145,VALID,1.39442,
2002-09-05, 08:29:00,VALID,918.885,VALID,0,VALID,91.1181,VALID,257.701,VALID,20.5716,VALID,152,VALID,0.89741,
2002-09-05, 08:30:00,VALID,918.884,VALID,0,VALID,91.0304,VALID,258.024,VALID,20.5614,VALID,159,VALID,0.559598,
2002-09-05, 08:31:00,VALID,918.891,VALID,0,VALID,91.1143,VALID,257.973,VALID,20.6268,VALID,166,VALID,0.142383,
2002-09-05, 08:32:00,VALID,918.884,VALID,0,VALID,90.4391,VALID,258.329,VALID,20.7237,VALID,144,VALID,0.426192,
2002-09-05, 08:33:00,VALID,918.874,VALID,0,VALID,88.154,VALID,259.518,VALID,20.8296,VALID,102,VALID,0.705929,
2002-09-05, 08:34:00,VALID,918.866,VALID,0,VALID,84.7804,VALID,261.029,VALID,20.8301,VALID,90,VALID,0.391026,
2002-09-05, 08:35:00,VALID,918.874,VALID,0,VALID,85.2535,VALID,262.473,VALID,20.9394,VALID,90,VALID,0,
2002-09-05, 08:36:00,VALID,918.878,VALID,0,VALID,86.4984,VALID,263.475,VALID,21.1268,VALID,90,VALID,0,
2002-09-05, 08:37:00,VALID,918.895,VALID,0,VALID,86.0622,VALID,264.426,VALID,21.3271,VALID,95,VALID,0,
2002-09-05, 08:38:00,VALID,918.895,VALID,0,VALID,86.2822,VALID,265.937,VALID,21.4728,VALID,221,VALID,0.227896,
2002-09-05, 08:39:00,VALID,918.898,VALID,0,VALID,86.6904,VALID,269.774,VALID,21.5119,VALID,226,VALID,0.105997,
2002-09-05, 08:40:00,VALID,918.909,VALID,0,VALID,87.1799,VALID,278.146,VALID,21.6508,VALID,224,VALID,0.114443,
2002-09-05, 08:41:00,VALID,918.911,VALID,0,VALID,85.8626,VALID,287.995,VALID,21.7952,VALID,288,VALID,0.193704,
2002-09-05, 08:42:00,VALID,918.908,VALID,0,VALID,85.4989,VALID,293.276,VALID,21.9279,VALID,30,VALID,0.0522837,
2002-09-05, 08:43:00,VALID,918.913,VALID,0,VALID,84.6367,VALID,295.585,VALID,22.0181,VALID,31,VALID,0.369026,
2002-09-05, 08:44:00,VALID,918.915,VALID,0,VALID,79.7449,VALID,298.082,VALID,22.1119,VALID,7,VALID,0.531461,
2002-09-05, 08:45:00,VALID,918.919,VALID,0,VALID,78.2482,VALID,298.557,VALID,22.1625,VALID,357,VALID,0.346755,
2002-09-05, 08:46:00,VALID,918.932,VALID,0,VALID,76.4896,VALID,295.84,VALID,22.2279,VALID,350,VALID,0.30599,
2002-09-05, 08:47:00,VALID,918.94,VALID,0,VALID,78.383,VALID,291.578,VALID,22.299,VALID,334,VALID,0.519336,
2002-09-05, 08:48:00,VALID,918.943,VALID,0,VALID,76.9804,VALID,285.329,VALID,22.2732,VALID,337,VALID,0.910156,
2002-09-05, 08:49:00,VALID,918.946,VALID,0,VALID,77.1686,VALID,278.452,VALID,22.1665,VALID,345,VALID,0.710732,
2002-09-05, 08:50:00,VALID,918.964,VALID,0,VALID,79.5045,VALID,271.829,VALID,22.1821,VALID,6,VALID,0.795732,
2002-09-05, 08:51:00,VALID,918.986,VALID,0,VALID,78.8586,VALID,265.784,VALID,22.2726,VALID,1,VALID,0.222957,
2002-09-05, 08:52:00,VALID,918.995,VALID,0,VALID,79.1828,VALID,261.012,VALID,22.3432,VALID,326,VALID,0.213942,
2002-09-05, 08:53:00,VALID,919.002,VALID,0,VALID,78.7962,VALID,257.514,VALID,22.3249,VALID,302,VALID,0.330181,
2002-09-05, 08:54:00,VALID,919.016,VALID,0,VALID,77.9074,VALID,254.865,VALID,22.2618,VALID,310,VALID,0.182855,
2002-09-05, 08:55:00,VALID,919.037,VALID,0,VALID,77.1432,VALID,252.556,VALID,22.3041,VALID,310,VALID,0.135074,
2002-09-05, 08:56:00,VALID,919.067,VALID,0,VALID,77.2945,VALID,250.043,VALID,22.275,VALID,309,VALID,0.446915,
2002-09-05, 08:57:00,VALID,919.064,VALID,0,VALID,75.6795,VALID,247.767,VALID,22.1425,VALID,302,VALID,0.222656,
2002-09-05, 08:58:00,VALID,919.065,VALID,0,VALID,76.3281,VALID,245.814,VALID,22.1363,VALID,302,VALID,0.0226151,
2002-09-05, 08:59:00,VALID,919.072,VALID,0,VALID,76.9219,VALID,243.403,VALID,22.1681,VALID,303,VALID,0.0971967,
2002-09-05, 09:00:00,VALID,919.094,VALID,0,VALID,78.8344,VALID,239.905,VALID,22.1748,VALID,351,VALID,0.827914,
2002-09-05, 09:01:00,VALID,919.106,VALID,0,VALID,77.0325,VALID,236.543,VALID,22.1716,VALID,21,VALID,1.22932,
2002-09-05, 09:02:00,VALID,919.129,VALID,0,VALID,78.8331,VALID,235.049,VALID,22.223,VALID,6,VALID,1.18273,
2002-09-05, 09:03:00,VALID,919.155,VALID,0,VALID,78.2545,VALID,234.454,VALID,22.2163,VALID,16,VALID,0.86899,
2002-09-05, 09:04:00,VALID,919.179,VALID,0,VALID,77.0885,VALID,234.981,VALID,22.2486,VALID,12,VALID,1.05179,
2002-09-05, 09:05:00,VALID,919.195,VALID,0,VALID,76.1361,VALID,236.458,VALID,22.2028,VALID,7,VALID,0.690378,
2002-09-05, 09:06:00,VALID,919.204,VALID,0,VALID,76.4921,VALID,238.717,VALID,22.1966,VALID,30,VALID,0.470313,
2002-09-05, 09:07:00,VALID,919.212,VALID,0,VALID,78.0244,VALID,241.501,VALID,22.2879,VALID,1,VALID,0.468164,
2002-09-05, 09:08:00,VALID,919.217,VALID,0,VALID,79.8491,VALID,245.713,VALID,22.3652,VALID,7,VALID,0.18565,
2002-09-05, 09:09:00,VALID,919.228,VALID,0,VALID,81.4615,VALID,250.671,VALID,22.4945,VALID,11,VALID,0.21234,
2002-09-05, 09:10:00,VALID,919.223,VALID,0,VALID,82.0732,VALID,255.052,VALID,22.6361,VALID,44,VALID,0.475361,
2002-09-05, 09:11:00,VALID,919.213,VALID,0,VALID,81.5188,VALID,257.514,VALID,22.7455,VALID,21,VALID,0.940034,
2002-09-05, 09:12:00,VALID,919.215,VALID,0,VALID,80.3463,VALID,257.684,VALID,22.7649,VALID,33,VALID,0.881757,
